Location: Arnolds Mill
(42.3415°N, 73.5951°W)
Time: 11:44:09
(UTC+00:00)

BlueWalker 3 - Pass Details

Date: 21 June 2024
Orbit: 480 x 492 km, 53.2° (Epoch: 13 July)

Event Time Altitude Azimuth Distance (km) Brightness Sun altitude
Rises 03:15:14 0° 277° (W) 2,538 5.9 -20.2°
Reaches altitude 10° 03:17:49 10° 294° (WNW) 1,658 5.2 -20.4°
Maximum altitude 03:20:39 20° 344° (NNW) 1,162 4.7 -20.6°
Drops below altitude 10° 03:23:29 10° 33° (NNE) 1,659 5.0 -20.8°
Sets 03:26:05 0° 51° (NE) 2,539 5.7 -21.0°
